Regional Weather Roundup
Issued by NWS

Home | Current Version | Previous Version | Text Only | Print | Product List | Glossary Off
Versions: 1 2 3 4 5 6 7 8 9 10 11 12 13 14 15 16 17 18 19 20 21 22 23 24 25 26 27 28 29 30 31 32 33 34 35 36 37 38 39 40 41 42 43 44 45 46 47 48 49 50

000
ASUS44 KMEG 050600
RWRTN
TENNESSEE HOURLY STATE WEATHER ROUNDUP
NATIONAL WEATHER SERVICE MEMPHIS TN
100 AM CDT THU MAY 05 2016

TNZ002-004-019-021-049-052-054-088>092-050700-
WEST TENNESSEE

CITY           SKY/WX    TMP DP  RH WIND       PRES   REMARKS
MEMPHIS INTL   CLEAR     62  43  49 N6        29.91R
NWS MEMPHIS      N/A     58 N/A N/A MISG        N/A
JACKSON        CLEAR     51  43  74 CALM      29.90S
DYERSBURG      CLEAR     54  43  66 CALM      29.90F
UNION CITY     CLEAR     48  43  81 CALM      29.88F
LEXINGTON      PTCLDY    46  43  87 CALM      29.87F
$$

TNZ008-025-027-028-033-062-065-066-050700-
NORTH MIDDLE TENNESSEE

CITY           SKY/WX    TMP DP  RH WIND       PRES   REMARKS
NASHVILLE      PTCLDY    51  41  68 NW7       29.85F
CLARKSVILLE    CLEAR     48  41  76 W5        29.85F
COOKEVILLE     MOCLDY    46  46 100 CALM      29.80F
CROSSVILLE     CLOUDY    47  43  86 NW6       29.79F
$$

TNZ061-075-076-078-094-096-097-050700-
SOUTH MIDDLE TENNESSEE

CITY           SKY/WX    TMP DP  RH WIND       PRES   REMARKS
TULLAHOMA      CLEAR     43  43 100 W5        29.84F
WINCHESTER     PTCLDY    48  45  87 NW3       29.84S
MCMINNVILLE    CLEAR     48  45  87 VRB3      29.82F
COLUMBIA       CLEAR    N/A N/A N/A CALM      29.85S
SHELBYVILLE    CLEAR     48  45  87 NW6       29.85F
$$

TNZ017-018-042-046-047-050700-
NORTHEAST TENNESSEE

CITY           SKY/WX    TMP DP  RH WIND       PRES   REMARKS
TRI CITIES     CLOUDY    47  44  90 W5        29.73F
$$

TNZ012-013-036-069-073-074-050700-
CENTRAL EAST TENNESSEE

CITY           SKY/WX    TMP DP  RH WIND       PRES   REMARKS
KNOXVILLE      LGT RAIN  50  45  83 NW12G22   29.77S
OAK RIDGE      LGT RAIN  49  43  80 NW3       29.78F
GATLINBURG     MOCLDY    48  45  87 W3        29.76S
$$

TNZ083-085-099-050700-
SOUTHEAST TENNESSEE

CITY           SKY/WX    TMP DP  RH WIND       PRES   REMARKS
CHATTANOOGA    PTCLDY    51  47  86 NW6       29.80F
$$

SKY/WX REPORTED AS FAIR MEANS FEW OR NO CLOUDS BELOW
12 THOUSAND FEET.




USA.gov is the U.S. government's official web portal to all federal, state and local government web resources and services.